sat.trackr.live / text

‹ back to catalog

STARLINK-31555

NORAD 59351 · 2024-060D

PAYLOAD ACTIVE UNKNOWN

§ Identity

Operator
Country
US
Launch date
2024-03-31
Launch site
AFETR
Launch vehicle
Mass (kg)
RCS (m²)

Purposes: comms

External: N2YO · Heavens-Above · Gunter

§ Orbital elements

Epoch: 2026-09-20T22:43:22.507392Z

Period
94.27 min
Inclination
43.0008°
Eccentricity
0.0001169
Mean motion
15.27577605 rev/d
Perigee alt
482.3 km
Apogee alt
483.9 km
Semi-major
6,861.2 km
B*
2.2191e-5
RAAN
237.2538°
Arg perigee
272.9822°
Mean anomaly
87.0896°
Rev number
13,997

§ Raw data

STARLINK-315551 59351U 24060D   26263.94678828  .00000349  00000+0  22191-4 0  99902 59351  43.0008 237.2538 0001169 272.9822  87.0896 15.27577605139971

JSON: /api/v1/satellites/59351 · /tle

For live sub-satellite position, see the globe view (requires WebGL).

§ Visibility from observer

Set your observer location to see the next 7 days of passes ≥ 10°. The values pass through the URL so the page stays shareable.

No JS? Fill the form by hand. The geolocation button needs JavaScript.